823  
ASUS41 KPHI 170413  
RWRPHI  
 
REGIONAL WEATHER ROUNDUP  
NATIONAL WEATHER SERVICE MOUNT HOLLY NJ  
1200 AM EDT FRI AUG 17 2018  
 
NOTE: "FAIR" INDICATES FEW OR NO CLOUDS BELOW 12,000 FEET WITH NO  
SIGNIFICANT WEATHER AND/OR S TO VISIBILITY
.  
 
* = STATION DOES NOT REPORT PRECIPITATION (E.G. RAIN, SNOW, ETC.)  
OR FOG.
 
 
NJZ015>026-170500-  
SOUTHERN NEW JERSEY  
 
CITY SKY/WX TMP DP RH WIND PRES REMARKS
 
POMONA FAIR 77 73 87 SW3 30.11S  
WILDWOOD* FAIR 76 70 82 S5 30.12S  
MILLVILLE FAIR 74 73 97 CALM 30.11R FOG  
WRIGHTSTOWN FAIR 75 71 88 W6 30.08S  
MOUNT HOLLY FAIR 74 72 93 CALM 30.10S  
TRENTON FAIR 78 70 76 CALM 30.09S  
 

 
NJZ001>014-170500-  
NORTHERN NEW JERSEY  
 
CITY SKY/WX TMP DP RH WIND PRES REMARKS
 
SUSSEX FAIR 71 71 100 CALM 30.10S FOG  
ANDOVER* N/A 72 72 100 CALM 30.11S  
MORRISTOWN FAIR 72 72 100 CALM 30.09R  
NEWARK FAIR 82 69 64 SW8 30.08R  
TETERBORO FAIR 81 70 69 SW3 30.07R  
CALDWELL FAIR 78 72 81 CALM 30.09R  
SOMERVILLE FAIR 72 71 97 CALM 30.08S FOG  
ALLAIRE* FAIR 76 70 82 S3 30.11S  
TOMS RIVER* FAIR 73 71 93 CALM 30.11S  
 

 
PAZ043-044-047-054-055-060>062-066>071-170500-  
EASTERN PENNSYLVANIA  
 
CITY SKY/WX TMP DP RH WIND PRES REMARKS
 
PHILADELPHIA FAIR 78 72 81 S3 30.10F  
NORTH PHILA FAIR 81 70 69 CALM 30.11S  
BLUE BELL* FAIR 70 70 100 CALM 30.12S  
DOYLESTOWN FAIR 75 71 87 CALM 30.10S  
QUAKERTOWN* CLEAR 73 73 100 CALM 30.12S  
PERKASIE* FAIR 72 72 100 CALM 30.13S FOG  
POTTSTOWN FAIR 73 72 96 CALM 30.12S  
LANCASTER FAIR 76 73 91 CALM 30.10S  
COATESVILLE FAIR 75 72 88 CALM 30.13F  
READING FAIR 75 73 93 CALM 30.08F  
ALLENTOWN FAIR 75 70 84 CALM 30.10S  
MOUNT POCONO FAIR 66 66 100 CALM 30.17S  
HAZLETON FAIR 68 59 73 MISG 30.18S HAZE  
LEHIGHTON FAIR 70 70 100 CALM 30.11S FOG  
WILKES BARRE FAIR 72 68 87 SE3 30.11F  
 

 
DEZALL-MDZ008-012-015-019-020-170500-  
DELAWARE AND EASTERN MARYLAND  
 
CITY SKY/WX TMP DP RH WIND PRES REMARKS
 
WILMINGTON FAIR 79 70 74 SW6 30.10F  
DOVER FAIR 77 72 85 S7 30.10S  
GEORGETOWN FAIR 74 71 91 S5 30.13R  
EASTON FAIR 79 74 85 S3 30.15S  
PATUXENT FAIR 81 74 79 S5 30.10  
OCEAN CITY FAIR 73 71 93 CALM 30.13R  
WALLOPS ISLAND FAIR 79 77 94 SW8 30.12F  
CAMBRIDGE CLEAR 75 73 94 SE3 30.11S  
SALISBURY FAIR 74 71 91 S3 30.12S  
 

 
PAZ001-021-NYZ056-072-MDZ011-DCZ001-170500-  
OTHER NEARBY LOCATIONS  
 
CITY SKY/WX TMP DP RH WIND PRES REMARKS
 
HARRISBURG MOCLDY 73 71 93 NW3 30.09S  
WILLIAMSPORT FAIR 73 69 87 CALM 30.09S  
BINGHAMTON FAIR 71 65 81 SW7 30.12F  
NEW YORK CITY FAIR 82 69 64 SW3 30.11S  
BALTIMORE FAIR 78 73 84 CALM 30.10R  
WASHINGTON DC FAIR 81 74 79 S7 30.11R  
 

 
 
 
CLICK HERE TO GO TO PREVIOUS BULLETINS.

The Nexlab PA Page
The Nexlab NJ Page
The Nexlab DE Page
The Nexlab MD Page Main Text Page